Tracking 28052 objects as of 22-Sep-2023
HD Live streaming from Space Station
objects crossing your sky now

WEINA 2

Track WEINA 2 now!
10-day predictions


NORAD ID: 47303
Int'l Code: 2020-103B
Perigee: 695.7 km
Apogee: 701.1 km
Inclination: 98.2 °
Period: 98.6 minutes
Semi major axis: 7069 km
RCS: Unknown
Launch date: December 27, 2020
Source: People's Republic of China (PRC)
Launch site: Jiuquan Satellite Launch Center, China (JSC)
Your satellite tracking list
Your tracking list is empty




NASA's NSSDC Master Catalog

Two Line Element Set (TLE):
1 47303U 20103B   23264.77425009  .00001821  00000-0  38403-3 0  9997
2 47303  98.1598 155.0381 0003829  90.4714 269.6925 14.60602334145591
Source of the keplerian elements: AFSPC